Time,TemperatureF,DewpointF,PressureIn,WindDirection,WindDirectionDegrees,WindSpeedMPH,WindSpeedGustMPH,Humidity,HourlyPrecipIn,Conditions,Clouds,dailyrainin,SolarRadiationWatts/m^2,SoftwareType,DateUTC
2013-05-05 00:00:00,41.0,40.0,30.11,North,350,12.0,-999.0,95,-99.99,,,-99.99,0.000000,,2013-05-05 05:00:00,
2013-05-05 00:52:00,41.0,40.0,30.11,North,350,12.0,-999.0,95,-99.99,,,-99.99,0.000000,,2013-05-05 05:52:00,
2013-05-05 03:00:00,41.0,39.0,30.10,NNW,340,12.0,-999.0,94,-99.99,,,-99.99,0.000000,,2013-05-05 08:00:00,
2013-05-05 03:53:00,41.0,39.0,30.10,NNW,340,12.0,-999.0,94,-99.99,,,-99.99,0.000000,,2013-05-05 08:53:00,
2013-05-05 04:00:00,41.0,39.0,30.10,NNW,344,11.0,-999.0,95,-99.99,,,-99.99,0.000000,,2013-05-05 09:00:00,
2013-05-05 04:52:00,41.0,39.0,30.10,NNW,344,11.0,-999.0,95,-99.99,,,-99.99,0.000000,,2013-05-05 09:52:00,
2013-05-05 05:00:00,41.0,40.0,30.10,NNW,342,12.0,-999.0,95,-99.99,,,-99.99,0.000000,,2013-05-05 10:00:00,
2013-05-05 05:53:00,41.0,40.0,30.10,NNW,342,12.0,-999.0,95,-99.99,,,-99.99,0.000000,,2013-05-05 10:53:00,
2013-05-05 06:00:00,41.0,39.0,30.11,NNW,341,11.0,-999.0,94,-99.99,,,-99.99,0.000000,,2013-05-05 11:00:00,
2013-05-05 06:52:00,41.0,39.0,30.11,NNW,341,11.0,-999.0,94,-99.99,,,-99.99,0.000000,,2013-05-05 11:52:00,
2013-05-05 07:00:00,41.0,40.0,30.13,NNW,343,11.0,-999.0,94,-99.99,,,-99.99,3.380000,,2013-05-05 12:00:00,
2013-05-05 07:52:00,41.0,40.0,30.13,NNW,343,11.0,-999.0,94,-99.99,,,-99.99,3.380000,,2013-05-05 12:52:00,
2013-05-05 08:00:00,42.0,40.0,30.14,NNW,340,10.0,-999.0,93,-99.99,,,-99.99,25.719999,,2013-05-05 13:00:00,
2013-05-05 08:52:00,42.0,40.0,30.14,NNW,340,10.0,-999.0,93,-99.99,,,-99.99,25.719999,,2013-05-05 13:52:00,
2013-05-05 09:00:00,42.0,40.0,30.14,NNW,334,11.0,-999.0,93,-99.99,,,-99.99,38.400002,,2013-05-05 14:00:00,
2013-05-05 09:52:00,42.0,40.0,30.14,NNW,334,11.0,-999.0,93,-99.99,,,-99.99,38.400002,,2013-05-05 14:52:00,
2013-05-05 10:00:00,43.0,40.0,30.15,NNW,344,12.0,-999.0,90,-99.99,,,-99.99,77.690002,,2013-05-05 15:00:00,
2013-05-05 10:53:00,43.0,40.0,30.15,NNW,344,12.0,-999.0,90,-99.99,,,-99.99,77.690002,,2013-05-05 15:53:00,
2013-05-05 11:00:00,45.0,42.0,30.15,NNW,342,12.0,-999.0,89,-99.99,,,-99.99,101.900002,,2013-05-05 16:00:00,
2013-05-05 11:53:00,45.0,42.0,30.15,NNW,342,12.0,-999.0,89,-99.99,,,-99.99,101.900002,,2013-05-05 16:53:00,
2013-05-05 12:00:00,46.0,42.0,30.16,NNW,339,12.0,-999.0,86,-99.99,,,-99.99,178.399994,,2013-05-05 17:00:00,
2013-05-05 12:52:00,46.0,42.0,30.16,NNW,339,12.0,-999.0,86,-99.99,,,-99.99,178.399994,,2013-05-05 17:52:00,
2013-05-05 13:00:00,49.0,44.0,30.14,NNW,340,11.0,-999.0,83,-99.99,,,-99.99,252.800003,,2013-05-05 18:00:00,
2013-05-05 13:52:00,49.0,44.0,30.14,NNW,340,11.0,-999.0,83,-99.99,,,-99.99,252.800003,,2013-05-05 18:52:00,
2013-05-05 14:00:00,50.0,45.0,30.13,NNW,340,13.0,-999.0,82,-99.99,,,-99.99,277.500000,,2013-05-05 19:00:00,
2013-05-05 14:52:00,50.0,45.0,30.13,NNW,340,13.0,-999.0,82,-99.99,,,-99.99,277.500000,,2013-05-05 19:52:00,
2013-05-05 15:00:00,52.0,46.0,30.13,NNW,341,12.0,-999.0,80,-99.99,,,-99.99,223.100006,,2013-05-05 20:00:00,
2013-05-05 15:52:00,52.0,46.0,30.13,NNW,341,12.0,-999.0,80,-99.99,,,-99.99,223.100006,,2013-05-05 20:52:00,
2013-05-05 16:00:00,52.0,46.0,30.10,NNW,342,12.0,-999.0,79,-99.99,,,-99.99,259.299988,,2013-05-05 21:00:00,
2013-05-05 16:53:00,52.0,46.0,30.10,NNW,342,12.0,-999.0,79,-99.99,,,-99.99,259.299988,,2013-05-05 21:53:00,
2013-05-05 17:00:00,52.0,47.0,30.10,NNW,340,12.0,-999.0,80,-99.99,,,-99.99,215.399994,,2013-05-05 22:00:00,
2013-05-05 17:52:00,52.0,47.0,30.10,NNW,340,12.0,-999.0,80,-99.99,,,-99.99,215.399994,,2013-05-05 22:52:00,
2013-05-05 18:00:00,54.0,47.0,30.10,North,350,10.0,-999.0,77,-99.99,,,-99.99,170.899994,,2013-05-05 23:00:00,
2013-05-05 18:52:00,54.0,47.0,30.10,North,350,10.0,-999.0,77,-99.99,,,-99.99,170.899994,,2013-05-05 23:52:00,
2013-05-05 19:00:00,54.0,47.0,30.09,North,6,9.0,-999.0,78,-99.99,,,-99.99,124.400002,,2013-05-06 00:00:00,
2013-05-05 19:52:00,54.0,47.0,30.09,North,6,9.0,-999.0,78,-99.99,,,-99.99,124.400002,,2013-05-06 00:52:00,
2013-05-05 20:00:00,54.0,48.0,30.09,North,11,8.0,-999.0,80,-99.99,,,-99.99,85.400002,,2013-05-06 01:00:00,
2013-05-05 20:52:00,54.0,48.0,30.09,North,11,8.0,-999.0,80,-99.99,,,-99.99,85.400002,,2013-05-06 01:52:00,
2013-05-05 21:00:00,52.0,47.0,30.10,North,359,5.0,-999.0,84,-99.99,,,-99.99,3.970000,,2013-05-06 02:00:00,
2013-05-05 21:52:00,52.0,47.0,30.10,North,359,5.0,-999.0,84,-99.99,,,-99.99,3.970000,,2013-05-06 02:52:00,
2013-05-05 22:00:00,51.0,47.0,30.11,NNW,347,5.0,-999.0,86,-99.99,,,-99.99,0.000000,,2013-05-06 03:00:00,
2013-05-05 22:52:00,51.0,47.0,30.11,NNW,347,5.0,-999.0,86,-99.99,,,-99.99,0.000000,,2013-05-06 03:52:00,
2013-05-05 23:00:00,50.0,47.0,30.12,North,350,6.0,-999.0,87,-99.99,,,-99.99,0.000000,,2013-05-06 04:00:00,
2013-05-05 23:53:00,50.0,47.0,30.12,North,350,6.0,-999.0,87,-99.99,,,-99.99,0.000000,,2013-05-06 04:53:00,